TimeGMT,TemperatureF,Dew PointF,Humidity,Sea Level PressureIn,VisibilityMPH,Wind Direction,Wind SpeedMPH,Gust SpeedMPH,PrecipitationIn,Events,Conditions,WindDirDegrees,DateUTC
12:50 AM,48.2,32.0,54,29.27,6.2,SSW,21.9,-,N/A,,Partly Cloudy,210,2012-11-04 00:50:00
1:50 AM,48.2,35.6,62,29.27,6.2,SSW,18.4,-,N/A,,Partly Cloudy,210,2012-11-04 01:50:00
2:50 AM,49,32,40,29.26,19,SSW,18.4,,,,Scattered Clouds,200,2012-11-04 02:50:00
2:50 AM,48.2,32.0,54,29.24,6.2,SSW,18.4,-,N/A,,Partly Cloudy,210,2012-11-04 02:50:00
3:50 AM,50.0,33.8,54,29.24,6.2,South,17.3,-,N/A,,Scattered Clouds,190,2012-11-04 03:50:00
4:50 AM,48.2,37.4,66,29.24,6.2,South,21.9,-,N/A,,Partly Cloudy,170,2012-11-04 04:50:00
5:50 AM,46,40,72,29.25,16,SSE,19.6,,,Rain,Light Rain Showers,160,2012-11-04 05:50:00
5:50 AM,46.4,39.2,76,29.24,6.2,SSE,19.6,-,N/A,,Scattered Clouds,160,2012-11-04 05:50:00
6:20 AM,46.4,37.4,71,29.24,6.2,South,20.7,-,N/A,,Partly Cloudy,170,2012-11-04 06:20:00
6:50 AM,46.4,37.4,71,29.24,6.2,SSE,19.6,-,N/A,,Partly Cloudy,150,2012-11-04 06:50:00
7:20 AM,46.4,37.4,71,29.24,6.2,SSE,18.4,-,N/A,,Partly Cloudy,150,2012-11-04 07:20:00
7:50 AM,46.4,39.2,76,29.24,6.2,SE,17.3,-,N/A,,Partly Cloudy,140,2012-11-04 07:50:00
8:20 AM,48.2,39.2,71,29.24,6.2,SE,18.4,-,N/A,,Partly Cloudy,140,2012-11-04 08:20:00
8:50 AM,48,38,60,29.26,25,SSE,18.4,,,,Scattered Clouds,150,2012-11-04 08:50:00
8:50 AM,48.2,39.2,71,29.24,6.2,SSE,18.4,-,N/A,,Partly Cloudy,150,2012-11-04 08:50:00
9:20 AM,48.2,41.0,76,29.27,6.2,SE,18.4,-,N/A,,Partly Cloudy,140,2012-11-04 09:20:00
9:50 AM,48.2,39.2,71,29.27,6.2,SE,16.1,-,N/A,,Partly Cloudy,140,2012-11-04 09:50:00
10:20 AM,50.0,41.0,71,29.27,6.2,SE,16.1,-,N/A,,Partly Cloudy,140,2012-11-04 10:20:00
10:50 AM,50.0,39.2,66,29.27,6.2,SE,17.3,-,N/A,,Partly Cloudy,140,2012-11-04 10:50:00
11:20 AM,50.0,41.0,71,29.27,6.2,ESE,18.4,-,N/A,,Partly Cloudy,120,2012-11-04 11:20:00
11:50 AM,48,40,67,29.29,19,ESE,20.7,,,,Scattered Clouds,110,2012-11-04 11:50:00
11:50 AM,48.2,41.0,76,29.27,6.2,ESE,20.7,-,N/A,,Partly Cloudy,120,2012-11-04 11:50:00
12:20 PM,50.0,41.0,71,29.27,6.2,ESE,19.6,-,N/A,,Partly Cloudy,120,2012-11-04 12:20:00
12:50 PM,48.2,41.0,76,29.30,6.2,ESE,21.9,-,N/A,,Partly Cloudy,110,2012-11-04 12:50:00
1:20 PM,48.2,41.0,76,29.30,6.2,ESE,21.9,-,N/A,,Partly Cloudy,120,2012-11-04 13:20:00
1:50 PM,48.2,41.0,76,29.30,6.2,ESE,20.7,-,N/A,,Scattered Clouds,110,2012-11-04 13:50:00
2:20 PM,46.4,41.0,81,29.30,6.2,ESE,18.4,-,N/A,,Scattered Clouds,110,2012-11-04 14:20:00
2:50 PM,47,40,67,29.33,19,East,18.4,,,,Partly Cloudy,100,2012-11-04 14:50:00
2:50 PM,46.4,39.2,76,29.33,6.2,East,18.4,-,N/A,,Scattered Clouds,100,2012-11-04 14:50:00
3:20 PM,46.4,39.2,76,29.33,6.2,East,18.4,-,N/A,,Scattered Clouds,100,2012-11-04 15:20:00
3:50 PM,46.4,39.2,76,29.33,6.2,East,16.1,-,N/A,,Scattered Clouds,90,2012-11-04 15:50:00
4:20 PM,46.4,37.4,71,29.36,6.2,East,15.0,-,N/A,,Scattered Clouds,80,2012-11-04 16:20:00
4:50 PM,46.4,37.4,71,29.36,6.2,East,13.8,-,N/A,,Scattered Clouds,80,2012-11-04 16:50:00
5:20 PM,46.4,35.6,66,29.36,6.2,East,15.0,-,N/A,,Scattered Clouds,80,2012-11-04 17:20:00
5:50 PM,46,34,53,29.39,19,East,16.1,,,,Scattered Clouds,80,2012-11-04 17:50:00
5:50 PM,46.4,33.8,62,29.39,6.2,East,16.1,-,N/A,,Partly Cloudy,80,2012-11-04 17:50:00
6:20 PM,46.4,35.6,66,29.39,6.2,East,19.6,-,N/A,,Partly Cloudy,80,2012-11-04 18:20:00
6:50 PM,46.4,33.8,62,29.42,6.2,East,19.6,-,N/A,,Partly Cloudy,80,2012-11-04 18:50:00
7:20 PM,46.4,35.6,66,29.42,6.2,East,17.3,-,N/A,,Partly Cloudy,80,2012-11-04 19:20:00
7:50 PM,46.4,35.6,66,29.44,6.2,East,18.4,-,N/A,,Partly Cloudy,80,2012-11-04 19:50:00
8:20 PM,44.6,35.6,71,29.44,6.2,East,18.4,-,N/A,,Partly Cloudy,80,2012-11-04 20:20:00
8:50 PM,45,36,60,29.48,19,East,19.6,,,,Scattered Clouds,90,2012-11-04 20:50:00
8:50 PM,44.6,35.6,71,29.47,6.2,East,19.6,-,N/A,,Partly Cloudy,90,2012-11-04 20:50:00
9:50 PM,44.6,33.8,66,29.50,6.2,ENE,16.1,-,N/A,,Partly Cloudy,70,2012-11-04 21:50:00
10:50 PM,42.8,35.6,76,29.53,6.2,East,15.0,-,N/A,,Partly Cloudy,80,2012-11-04 22:50:00
11:50 PM,39,35,79,29.57,19,North,8.1,,,,Scattered Clouds,10,2012-11-04 23:50:00
11:50 PM,39.2,35.6,87,29.56,6.2,North,8.1,-,N/A,,Partly Cloudy,10,2012-11-04 23:50:00